START_TIME,STEP,MOV.,H8,t_acc.,H43,t_acc.,M25,t_acc.,H9,t_acc.
1979-03-02 03:00:18.970 ,5,0,1.,12.0,0.,12.0,0.,12.0,0.,12.0
1979-03-02 03:00:30.970 ,5,0,1.,12.0,0.,12.0,0.,12.0,0.,12.0
1979-03-02 03:00:42.970 ,6,0,0.,12.0,0.,12.0,0.,12.0,0.,12.0
1979-03-02 03:00:54.970 ,6,0,2.,12.0,0.,12.0,0.,12.0,0.,12.0
1979-03-02 03:01:06.970 ,7,0,3.,12.0,0.,12.0,0.,12.0,0.,12.0
1979-03-02 03:01:18.970 ,7,0,0.,12.0,0.,12.0,0.,12.0,0.,12.0
1979-03-02 03:01:30.960 ,7,0,0.,12.0,0.,12.0,0.,12.0,0.,12.0
1979-03-02 03:01:42.970 ,7,0,0.,12.0,0.,12.0,0.,12.0,0.,12.0
1979-03-02 03:01:54.970 ,6,0,0.,12.0,0.,12.0,0.,12.0,0.,12.0
1979-03-02 03:02:06.970 ,6,0,1.,12.0,0.,12.0,0.,12.0,0.,12.0
1979-03-02 03:02:18.960 ,5,0,0.,12.0,0.,12.0,0.,12.0,0.,12.0
1979-03-02 03:02:30.970 ,5,0,0.,12.0,0.,12.0,0.,12.0,0.,12.0
1979-03-02 03:02:42.960 ,4,0,0.,12.0,0.,12.0,0.,12.0,0.,12.0
1979-03-02 03:02:54.970 ,4,0,0.,12.0,0.,12.0,0.,12.0,0.,12.0
1979-03-02 03:03:06.960 ,3,0,0.,12.0,0.,12.0,0.,12.0,0.,12.0
1979-03-02 03:03:18.970 ,3,0,0.,12.0,0.,12.0,0.,12.0,0.,12.0
1979-03-02 03:03:30.960 ,2,0,1.,12.0,0.,12.0,0.,12.0,0.,12.0
1979-03-02 03:03:42.970 ,2,0,0.,12.0,0.,12.0,0.,12.0,0.,12.0
1979-03-02 03:03:54.960 ,1,0,1.,12.0,0.,12.0,0.,12.0,0.,12.0
1979-03-02 03:04:06.960 ,1,0,1.,12.0,0.,12.0,0.,12.0,0.,12.0
1979-03-02 03:04:18.960 ,0,0,0.,12.0,0.,12.0,0.,12.0,0.,12.0
1979-03-02 03:04:30.960 ,0,0,0.,12.0,0.,12.0,0.,12.0,0.,12.0
1979-03-02 03:04:42.960 ,0,0,1.,12.0,0.,12.0,0.,12.0,0.,12.0
1979-03-02 03:04:54.960 ,0,0,0.,12.0,0.,12.0,0.,12.0,0.,12.0
1979-03-02 03:05:06.960 ,1,0,0.,12.0,0.,12.0,0.,12.0,0.,12.0
1979-03-02 03:05:18.960 ,1,0,1.,12.0,0.,12.0,0.,12.0,0.,12.0
1979-03-02 03:05:30.960 ,2,0,0.,12.0,0.,12.0,0.,12.0,0.,12.0
1979-03-02 03:05:42.960 ,2,0,1.,12.0,0.,12.0,0.,12.0,0.,12.0
1979-03-02 03:05:54.960 ,3,0,0.,12.0,0.,12.0,0.,12.0,0.,12.0
1979-03-02 03:06:06.960 ,3,0,2.,12.0,0.,12.0,0.,12.0,0.,12.0
1979-03-02 03:06:18.960 ,4,0,2.,12.0,0.,12.0,0.,12.0,0.,12.0
1979-03-02 03:06:30.960 ,4,0,0.,12.0,0.,12.0,0.,12.0,0.,12.0
1979-03-02 03:06:42.960 ,5,0,1.,12.0,0.,12.0,0.,12.0,0.,12.0
1979-03-02 03:06:54.960 ,5,0,0.,12.0,0.,12.0,0.,12.0,0.,12.0
1979-03-02 03:07:06.960 ,6,0,1.,12.0,0.,12.0,0.,12.0,0.,12.0
1979-03-02 03:07:18.960 ,6,0,2.,12.0,0.,12.0,0.,12.0,0.,12.0
1979-03-02 03:07:30.960 ,7,0,2.,12.0,0.,12.0,0.,12.0,0.,12.0
1979-03-02 03:07:42.960 ,7,0,0.,12.0,0.,12.0,0.,12.0,0.,12.0
1979-03-02 03:07:54.960 ,7,0,0.,12.0,0.,12.0,0.,12.0,0.,12.0
1979-03-02 03:08:06.960 ,7,0,0.,12.0,0.,12.0,0.,12.0,0.,12.0
1979-03-02 03:08:18.960 ,6,0,0.,12.0,0.,12.0,0.,12.0,0.,12.0
1979-03-02 03:08:30.960 ,6,0,0.,12.0,0.,12.0,0.,12.0,0.,12.0
1979-03-02 03:08:42.970 ,5,0,4.,12.0,0.,12.0,0.,12.0,0.,12.0
1979-03-02 03:08:54.970 ,5,0,1.,12.0,0.,12.0,0.,12.0,0.,12.0
1979-03-02 03:09:06.970 ,4,0,0.,12.0,0.,12.0,0.,12.0,0.,12.0
1979-03-02 03:09:18.970 ,4,0,1.,12.0,0.,12.0,0.,12.0,0.,12.0
1979-03-02 03:09:30.970 ,3,0,2.,12.0,0.,12.0,0.,12.0,0.,12.0
1979-03-02 03:09:42.970 ,3,0,3.,12.0,0.,12.0,0.,12.0,0.,12.0
1979-03-02 03:09:54.970 ,2,0,1.,12.0,0.,12.0,0.,12.0,0.,12.0
1979-03-02 03:10:06.970 ,2,0,2.,12.0,0.,12.0,0.,12.0,0.,12.0
1979-03-02 03:10:18.970 ,1,0,1.,12.0,0.,12.0,0.,12.0,0.,12.0
1979-03-02 03:10:30.970 ,1,0,0.,12.0,0.,12.0,0.,12.0,0.,12.0
1979-03-02 03:10:42.970 ,0,0,0.,12.0,0.,12.0,0.,12.0,0.,12.0
1979-03-02 03:10:54.970 ,0,0,0.,12.0,0.,12.0,0.,12.0,0.,12.0
1979-03-02 03:11:06.970 ,0,0,1.,12.0,0.,12.0,0.,12.0,0.,12.0
1979-03-02 03:11:18.970 ,0,0,0.,12.0,0.,12.0,0.,12.0,0.,12.0
1979-03-02 03:11:30.970 ,1,0,0.,12.0,0.,12.0,0.,12.0,0.,12.0
1979-03-02 03:11:42.970 ,1,0,0.,12.0,0.,12.0,0.,12.0,0.,12.0
1979-03-02 03:11:54.970 ,2,0,0.,12.0,0.,12.0,0.,12.0,0.,12.0
1979-03-02 03:12:06.970 ,2,0,0.,12.0,0.,12.0,0.,12.0,0.,12.0
1979-03-02 03:12:18.970 ,3,0,0.,12.0,0.,12.0,0.,12.0,0.,12.0
1979-03-02 03:12:30.970 ,3,0,2.,12.0,0.,12.0,0.,12.0,0.,12.0
1979-03-02 03:12:42.970 ,4,0,0.,12.0,0.,12.0,0.,12.0,0.,12.0
1979-03-02 03:12:54.970 ,4,0,1.,12.0,0.,12.0,0.,12.0,0.,12.0
1979-03-02 03:13:06.970 ,5,0,0.,12.0,0.,12.0,0.,12.0,0.,12.0
1979-03-02 03:13:18.970 ,5,0,0.,12.0,0.,12.0,0.,12.0,0.,12.0
1979-03-02 03:13:30.970 ,6,0,0.,12.0,0.,12.0,0.,12.0,0.,12.0
1979-03-02 03:13:42.970 ,6,0,1.,12.0,0.,12.0,0.,12.0,0.,12.0
1979-03-02 03:13:54.970 ,7,0,0.,12.0,0.,12.0,0.,12.0,0.,12.0
1979-03-02 03:14:06.970 ,7,0,0.,12.0,0.,12.0,0.,12.0,0.,12.0
1979-03-02 03:14:18.970 ,7,0,0.,12.0,0.,12.0,0.,12.0,0.,12.0
1979-03-02 03:14:30.970 ,7,0,0.,12.0,0.,12.0,0.,12.0,0.,12.0
1979-03-02 03:14:42.970 ,6,0,0.,12.0,0.,12.0,0.,12.0,0.,12.0
1979-03-02 03:14:54.970 ,6,0,4.,12.0,0.,12.0,0.,12.0,0.,12.0
1979-03-02 03:15:06.970 ,5,0,0.,12.0,0.,12.0,0.,12.0,0.,12.0
1979-03-02 03:15:18.970 ,5,0,1.,12.0,0.,12.0,0.,12.0,0.,12.0
1979-03-02 03:15:30.970 ,4,0,0.,12.0,0.,12.0,0.,12.0,0.,12.0
1979-03-02 03:15:42.970 ,4,0,0.,12.0,0.,12.0,0.,12.0,0.,12.0
1979-03-02 03:15:54.970 ,3,0,1.,12.0,0.,12.0,0.,12.0,0.,12.0
1979-03-02 03:16:06.970 ,3,0,0.,12.0,0.,12.0,0.,12.0,0.,12.0
1979-03-02 03:16:18.970 ,2,0,0.,12.0,0.,12.0,0.,12.0,0.,12.0
1979-03-02 03:16:30.970 ,2,0,2.,12.0,0.,12.0,0.,12.0,0.,12.0
1979-03-02 03:16:42.970 ,1,0,0.,12.0,0.,12.0,0.,12.0,0.,12.0
1979-03-02 03:16:54.970 ,1,0,0.,12.0,0.,12.0,0.,12.0,0.,12.0
1979-03-02 03:17:06.970 ,0,0,2.,12.0,0.,12.0,0.,12.0,0.,12.0
1979-03-02 03:17:18.970 ,0,0,0.,12.0,0.,12.0,0.,12.0,0.,12.0
1979-03-02 03:17:30.960 ,0,0,0.,12.0,0.,12.0,0.,12.0,0.,12.0
1979-03-02 03:17:42.960 ,0,0,0.,12.0,0.,12.0,0.,12.0,0.,12.0
1979-03-02 03:17:54.960 ,1,0,0.,12.0,0.,12.0,0.,12.0,0.,12.0
1979-03-02 03:18:06.960 ,1,0,0.,12.0,0.,12.0,0.,12.0,0.,12.0
1979-03-02 03:18:18.960 ,2,0,0.,12.0,0.,12.0,0.,12.0,0.,12.0
1979-03-02 03:18:30.960 ,2,0,0.,12.0,0.,12.0,0.,12.0,0.,12.0
1979-03-02 03:18:42.960 ,3,0,2.,12.0,0.,12.0,0.,12.0,0.,12.0
1979-03-02 03:18:54.960 ,3,0,1.,12.0,0.,12.0,0.,12.0,0.,12.0
1979-03-02 03:19:06.960 ,4,0,1.,12.0,0.,12.0,0.,12.0,0.,12.0
1979-03-02 03:19:18.960 ,4,0,2.,12.0,0.,12.0,0.,12.0,0.,12.0
1979-03-02 03:19:30.960 ,5,0,3.,12.0,0.,12.0,0.,12.0,0.,12.0
1979-03-02 03:19:42.960 ,5,0,0.,12.0,0.,12.0,0.,12.0,0.,12.0
1979-03-02 03:19:54.960 ,6,0,2.,12.0,0.,12.0,0.,12.0,0.,12.0
1979-03-02 03:20:06.960 ,6,0,2.,12.0,0.,12.0,0.,12.0,0.,12.0
1979-03-02 03:20:18.960 ,7,0,0.,12.0,0.,12.0,0.,12.0,0.,12.0
1979-03-02 03:20:30.960 ,7,0,0.,12.0,0.,12.0,0.,12.0,0.,12.0
1979-03-02 03:20:42.960 ,7,0,0.,12.0,0.,12.0,0.,12.0,0.,12.0
1979-03-02 03:20:54.960 ,7,0,0.,12.0,0.,12.0,0.,12.0,0.,12.0
1979-03-02 03:21:06.960 ,6,0,0.,12.0,0.,12.0,0.,12.0,0.,12.0
1979-03-02 03:21:18.960 ,6,0,2.,12.0,0.,12.0,0.,12.0,0.,12.0
1979-03-02 03:21:30.960 ,5,0,0.,12.0,0.,12.0,0.,12.0,0.,12.0
1979-03-02 03:21:42.960 ,5,0,1.,12.0,0.,12.0,0.,12.0,0.,12.0
1979-03-02 03:21:54.960 ,4,0,3.,12.0,0.,12.0,0.,12.0,0.,12.0
1979-03-02 03:22:06.960 ,4,0,1.,12.0,0.,12.0,0.,12.0,0.,12.0
1979-03-02 03:22:18.960 ,3,0,4.,12.0,0.,12.0,0.,12.0,0.,12.0
1979-03-02 03:22:30.960 ,3,0,0.,12.0,0.,12.0,0.,12.0,0.,12.0
1979-03-02 03:22:42.960 ,2,0,1.,12.0,0.,12.0,0.,12.0,0.,12.0
1979-03-02 03:22:54.960 ,2,0,0.,12.0,0.,12.0,0.,12.0,0.,12.0
1979-03-02 03:23:06.970 ,1,0,1.,12.0,0.,12.0,0.,12.0,0.,12.0
1979-03-02 03:23:18.970 ,1,0,0.,12.0,0.,12.0,0.,12.0,0.,12.0
1979-03-02 03:23:30.970 ,0,0,0.,12.0,0.,12.0,0.,12.0,0.,12.0
1979-03-02 03:23:42.970 ,0,0,0.,12.0,0.,12.0,0.,12.0,0.,12.0
1979-03-02 03:23:54.970 ,0,0,0.,12.0,0.,12.0,0.,12.0,0.,12.0
1979-03-02 03:24:06.970 ,0,0,1.,12.0,0.,12.0,0.,12.0,0.,12.0
1979-03-02 03:24:18.970 ,1,0,1.,12.0,0.,12.0,0.,12.0,0.,12.0
1979-03-02 03:24:30.970 ,1,0,0.,12.0,0.,12.0,0.,12.0,0.,12.0
1979-03-02 03:24:42.970 ,2,0,0.,12.0,0.,12.0,0.,12.0,0.,12.0
1979-03-02 03:24:54.970 ,2,0,1.,12.0,0.,12.0,0.,12.0,0.,12.0
1979-03-02 03:25:06.970 ,3,0,0.,12.0,0.,12.0,0.,12.0,0.,12.0
1979-03-02 03:25:18.970 ,3,0,0.,12.0,0.,12.0,0.,12.0,0.,12.0
1979-03-02 03:25:30.970 ,4,0,1.,12.0,0.,12.0,0.,12.0,0.,12.0
1979-03-02 03:25:42.970 ,4,0,1.,12.0,0.,12.0,0.,12.0,0.,12.0
1979-03-02 03:25:54.970 ,5,0,1.,12.0,0.,12.0,0.,12.0,0.,12.0
1979-03-02 03:26:06.970 ,5,0,3.,12.0,0.,12.0,0.,12.0,0.,12.0
1979-03-02 03:26:18.970 ,6,0,1.,12.0,0.,12.0,0.,12.0,0.,12.0
1979-03-02 03:26:30.970 ,6,0,3.,12.0,0.,12.0,0.,12.0,0.,12.0
1979-03-02 03:26:42.970 ,7,0,0.,12.0,0.,12.0,0.,12.0,0.,12.0
1979-03-02 03:26:54.970 ,7,0,0.,12.0,0.,12.0,0.,12.0,0.,12.0
1979-03-02 03:27:06.970 ,7,0,0.,12.0,0.,12.0,0.,12.0,0.,12.0
1979-03-02 03:27:18.970 ,7,0,0.,12.0,0.,12.0,0.,12.0,0.,12.0
1979-03-02 03:27:30.970 ,6,0,0.,12.0,0.,12.0,0.,12.0,0.,12.0
1979-03-02 03:27:42.970 ,6,0,3.,12.0,0.,12.0,0.,12.0,0.,12.0
1979-03-02 03:27:54.970 ,5,0,1.,12.0,0.,12.0,0.,12.0,0.,12.0
1979-03-02 03:28:06.970 ,5,0,4.,12.0,0.,12.0,0.,12.0,0.,12.0
1979-03-02 03:28:18.970 ,4,0,1.,12.0,0.,12.0,0.,12.0,0.,12.0
1979-03-02 03:28:30.970 ,4,0,0.,12.0,0.,12.0,0.,12.0,0.,12.0
1979-03-02 03:28:42.970 ,3,0,1.,12.0,0.,12.0,0.,12.0,0.,12.0
1979-03-02 03:28:54.970 ,3,0,0.,12.0,0.,12.0,0.,12.0,0.,12.0
1979-03-02 03:29:06.970 ,2,0,0.,12.0,0.,12.0,0.,12.0,0.,12.0
1979-03-02 03:29:18.970 ,2,0,1.,12.0,0.,12.0,0.,12.0,0.,12.0
1979-03-02 03:29:30.970 ,1,0,0.,12.0,0.,12.0,0.,12.0,0.,12.0
1979-03-02 03:29:42.970 ,1,0,0.,12.0,0.,12.0,0.,12.0,0.,12.0
1979-03-02 03:29:54.970 ,0,0,0.,12.0,0.,12.0,0.,12.0,0.,12.0
1979-03-02 03:30:06.970 ,0,0,0.,12.0,0.,12.0,0.,12.0,0.,12.0
1979-03-02 03:30:18.970 ,0,0,0.,12.0,0.,12.0,0.,12.0,0.,12.0
1979-03-02 03:30:30.970 ,0,0,0.,12.0,0.,12.0,0.,12.0,0.,12.0
1979-03-02 03:30:42.970 ,1,0,0.,12.0,0.,12.0,0.,12.0,0.,12.0
1979-03-02 03:30:54.970 ,1,0,0.,12.0,0.,12.0,0.,12.0,0.,12.0
1979-03-02 03:31:06.970 ,2,0,0.,12.0,0.,12.0,0.,12.0,0.,12.0
1979-03-02 03:31:18.970 ,2,0,1.,12.0,0.,12.0,0.,12.0,0.,12.0
1979-03-02 03:31:30.970 ,3,0,1.,12.0,0.,12.0,0.,12.0,0.,12.0
1979-03-02 03:31:42.970 ,3,0,1.,12.0,0.,12.0,0.,12.0,0.,12.0
1979-03-02 03:31:54.970 ,4,0,1.,12.0,0.,12.0,0.,12.0,0.,12.0
1979-03-02 03:32:06.970 ,4,0,1.,12.0,0.,12.0,0.,12.0,0.,12.0
1979-03-02 03:32:18.970 ,5,0,0.,12.0,0.,12.0,0.,12.0,0.,12.0
1979-03-02 03:32:30.970 ,5,0,3.,12.0,0.,12.0,0.,12.0,0.,12.0
1979-03-02 03:32:42.970 ,6,0,1.,12.0,0.,12.0,0.,12.0,0.,12.0
1979-03-02 03:32:54.970 ,6,0,2.,12.0,0.,12.0,0.,12.0,0.,12.0
1979-03-02 03:33:06.970 ,7,0,2.,12.0,0.,12.0,0.,12.0,0.,12.0
1979-03-02 03:33:18.970 ,7,0,0.,12.0,0.,12.0,0.,12.0,0.,12.0
1979-03-02 03:33:30.970 ,7,0,0.,12.0,0.,12.0,0.,12.0,0.,12.0
1979-03-02 03:33:42.970 ,7,0,0.,12.0,0.,12.0,0.,12.0,0.,12.0
1979-03-02 03:33:54.970 ,6,0,0.,12.0,0.,12.0,0.,12.0,0.,12.0
1979-03-02 03:34:06.970 ,6,0,1.,12.0,0.,12.0,0.,12.0,0.,12.0
1979-03-02 03:34:18.970 ,5,0,1.,12.0,0.,12.0,0.,12.0,0.,12.0
1979-03-02 03:34:30.970 ,5,0,1.,12.0,0.,12.0,0.,12.0,0.,12.0
1979-03-02 03:34:42.970 ,4,0,2.,12.0,0.,12.0,0.,12.0,0.,12.0
1979-03-02 03:34:54.970 ,4,0,3.,12.0,0.,12.0,0.,12.0,0.,12.0
1979-03-02 03:35:06.970 ,3,0,2.,12.0,0.,12.0,0.,12.0,0.,12.0
1979-03-02 03:35:18.970 ,3,0,0.,12.0,0.,12.0,0.,12.0,0.,12.0
1979-03-02 03:35:30.970 ,2,0,0.,12.0,0.,12.0,0.,12.0,0.,12.0
1979-03-02 03:35:42.970 ,2,0,2.,12.0,0.,12.0,0.,12.0,0.,12.0
1979-03-02 03:35:54.970 ,1,0,2.,12.0,0.,12.0,0.,12.0,0.,12.0
1979-03-02 03:36:06.970 ,1,0,0.,12.0,0.,12.0,0.,12.0,0.,12.0
1979-03-02 03:36:18.970 ,0,0,0.,12.0,0.,12.0,0.,12.0,0.,12.0
1979-03-02 03:36:30.970 ,0,0,0.,12.0,0.,12.0,0.,12.0,0.,12.0
1979-03-02 03:36:42.970 ,0,0,0.,12.0,0.,12.0,0.,12.0,0.,12.0
1979-03-02 03:36:54.970 ,0,0,1.,12.0,0.,12.0,0.,12.0,0.,12.0
1979-03-02 03:37:06.970 ,1,0,0.,12.0,0.,12.0,0.,12.0,0.,12.0
1979-03-02 03:37:18.970 ,1,0,1.,12.0,0.,12.0,0.,12.0,0.,12.0
1979-03-02 03:37:30.970 ,2,0,0.,12.0,0.,12.0,0.,12.0,0.,12.0
1979-03-02 03:37:42.970 ,2,0,2.,12.0,0.,12.0,0.,12.0,0.,12.0
1979-03-02 03:37:54.970 ,3,0,0.,12.0,0.,12.0,0.,12.0,0.,12.0
1979-03-02 03:38:06.970 ,3,0,2.,12.0,0.,12.0,0.,12.0,0.,12.0
1979-03-02 03:38:18.970 ,4,0,0.,12.0,0.,12.0,0.,12.0,0.,12.0
1979-03-02 03:38:30.970 ,4,0,3.,12.0,0.,12.0,0.,12.0,0.,12.0
1979-03-02 03:38:42.970 ,5,0,2.,12.0,0.,12.0,0.,12.0,0.,12.0
1979-03-02 03:38:54.970 ,5,0,1.,12.0,0.,12.0,0.,12.0,0.,12.0
1979-03-02 03:39:06.970 ,6,0,1.,12.0,0.,12.0,0.,12.0,0.,12.0
1979-03-02 03:39:18.970 ,6,0,0.,12.0,0.,12.0,0.,12.0,0.,12.0
1979-03-02 03:39:30.970 ,0,0,1.,12.0,0.,12.0,0.,12.0,0.,12.0
1979-03-02 03:39:42.970 ,0,0,0.,12.0,0.,12.0,0.,12.0,0.,12.0
1979-03-02 03:39:54.970 ,7,0,0.,12.0,0.,12.0,0.,12.0,0.,12.0
1979-03-02 03:40:06.970 ,7,0,0.,12.0,0.,12.0,0.,12.0,0.,12.0
1979-03-02 03:40:18.970 ,6,0,0.,12.0,0.,12.0,0.,12.0,0.,12.0
1979-03-02 03:40:30.970 ,6,0,0.,12.0,0.,12.0,0.,12.0,0.,12.0
1979-03-02 03:40:42.970 ,5,0,3.,12.0,0.,12.0,0.,12.0,0.,12.0
1979-03-02 03:40:54.970 ,5,0,3.,12.0,0.,12.0,0.,12.0,0.,12.0
1979-03-02 03:41:06.970 ,4,0,1.,12.0,0.,12.0,0.,12.0,0.,12.0
1979-03-02 03:41:18.970 ,4,0,2.,12.0,0.,12.0,0.,12.0,0.,12.0
1979-03-02 03:41:30.970 ,3,0,2.,12.0,0.,12.0,0.,12.0,0.,12.0
1979-03-02 03:41:42.970 ,3,0,1.,12.0,0.,12.0,0.,12.0,0.,12.0
1979-03-02 03:41:54.970 ,2,0,0.,12.0,0.,12.0,0.,12.0,0.,12.0
1979-03-02 03:42:06.970 ,2,0,0.,12.0,0.,12.0,0.,12.0,0.,12.0
1979-03-02 03:42:18.970 ,1,0,0.,12.0,0.,12.0,0.,12.0,0.,12.0
1979-03-02 03:42:30.970 ,1,0,0.,12.0,0.,12.0,0.,12.0,0.,12.0
1979-03-02 03:42:42.970 ,0,0,0.,12.0,0.,12.0,0.,12.0,0.,12.0
1979-03-02 03:42:54.970 ,0,0,1.,12.0,0.,12.0,0.,12.0,0.,12.0
1979-03-02 03:43:06.970 ,0,0,2.,12.0,0.,12.0,0.,12.0,0.,12.0
1979-03-02 03:43:18.970 ,0,0,0.,12.0,0.,12.0,0.,12.0,0.,12.0
1979-03-02 03:43:30.970 ,1,0,0.,12.0,0.,12.0,0.,12.0,0.,12.0
1979-03-02 03:43:42.970 ,1,0,0.,12.0,0.,12.0,0.,12.0,0.,12.0
1979-03-02 03:43:54.970 ,2,0,1.,12.0,0.,12.0,0.,12.0,0.,12.0
1979-03-02 03:44:06.970 ,2,0,0.,12.0,0.,12.0,0.,12.0,0.,12.0
1979-03-02 03:44:18.970 ,3,0,0.,12.0,0.,12.0,0.,12.0,0.,12.0
1979-03-02 03:44:30.970 ,3,0,2.,12.0,0.,12.0,0.,12.0,0.,12.0
1979-03-02 03:44:42.970 ,4,0,1.,12.0,0.,12.0,0.,12.0,0.,12.0
1979-03-02 03:44:54.970 ,4,0,3.,12.0,0.,12.0,0.,12.0,0.,12.0
1979-03-02 03:45:06.970 ,5,0,1.,12.0,0.,12.0,0.,12.0,0.,12.0
1979-03-02 03:45:18.970 ,5,0,3.,12.0,0.,12.0,0.,12.0,0.,12.0
1979-03-02 03:45:30.970 ,6,0,2.,12.0,0.,12.0,0.,12.0,0.,12.0
1979-03-02 03:45:42.970 ,6,0,2.,12.0,0.,12.0,0.,12.0,0.,12.0
1979-03-02 03:45:54.970 ,7,0,0.,12.0,0.,12.0,0.,12.0,0.,12.0
1979-03-02 03:46:06.970 ,7,0,0.,12.0,0.,12.0,0.,12.0,0.,12.0
1979-03-02 03:46:18.970 ,7,0,0.,12.0,0.,12.0,0.,12.0,0.,12.0
1979-03-02 03:46:30.970 ,7,0,0.,12.0,0.,12.0,0.,12.0,0.,12.0
1979-03-02 03:46:42.970 ,6,0,0.,12.0,0.,12.0,0.,12.0,0.,12.0
1979-03-02 03:46:54.970 ,6,0,2.,12.0,0.,12.0,0.,12.0,0.,12.0
1979-03-02 03:47:06.970 ,5,0,3.,12.0,0.,12.0,0.,12.0,0.,12.0
1979-03-02 03:47:18.970 ,5,0,2.,12.0,0.,12.0,0.,12.0,0.,12.0
1979-03-02 03:47:30.970 ,4,0,0.,12.0,0.,12.0,0.,12.0,0.,12.0
1979-03-02 03:47:42.970 ,4,0,2.,12.0,0.,12.0,0.,12.0,0.,12.0
1979-03-02 03:47:54.970 ,3,0,1.,12.0,0.,12.0,0.,12.0,0.,12.0
1979-03-02 03:48:06.970 ,3,0,1.,12.0,0.,12.0,0.,12.0,0.,12.0
1979-03-02 03:48:18.970 ,2,0,2.,12.0,0.,12.0,0.,12.0,0.,12.0
1979-03-02 03:48:30.970 ,2,0,0.,12.0,0.,12.0,0.,12.0,0.,12.0
1979-03-02 03:48:42.970 ,1,0,1.,12.0,0.,12.0,0.,12.0,0.,12.0
1979-03-02 03:48:54.970 ,1,0,0.,12.0,0.,12.0,0.,12.0,0.,12.0
1979-03-02 03:49:06.970 ,0,0,1.,12.0,0.,12.0,0.,12.0,0.,12.0
1979-03-02 03:49:18.970 ,0,0,0.,12.0,0.,12.0,0.,12.0,0.,12.0
1979-03-02 03:49:30.970 ,0,0,1.,12.0,0.,12.0,0.,12.0,0.,12.0
1979-03-02 03:49:42.970 ,0,0,0.,12.0,0.,12.0,0.,12.0,0.,12.0
1979-03-02 03:49:54.970 ,1,0,1.,12.0,0.,12.0,0.,12.0,0.,12.0
1979-03-02 03:50:06.970 ,1,0,1.,12.0,0.,12.0,0.,12.0,0.,12.0
1979-03-02 03:50:18.970 ,2,0,2.,12.0,0.,12.0,0.,12.0,0.,12.0
1979-03-02 03:50:30.970 ,2,0,0.,12.0,0.,12.0,0.,12.0,0.,12.0
1979-03-02 03:50:42.970 ,3,0,1.,12.0,0.,12.0,0.,12.0,0.,12.0
1979-03-02 03:50:54.970 ,3,0,5.,12.0,0.,12.0,0.,12.0,0.,12.0
1979-03-02 03:51:06.970 ,4,0,2.,12.0,0.,12.0,0.,12.0,0.,12.0
1979-03-02 03:51:18.970 ,4,0,3.,12.0,0.,12.0,0.,12.0,0.,12.0
1979-03-02 03:51:30.970 ,5,0,0.,12.0,0.,12.0,0.,12.0,0.,12.0
1979-03-02 03:51:42.970 ,5,0,0.,12.0,0.,12.0,0.,12.0,0.,12.0
1979-03-02 03:51:54.970 ,6,0,0.,12.0,0.,12.0,0.,12.0,0.,12.0
1979-03-02 03:52:06.970 ,6,0,1.,12.0,0.,12.0,0.,12.0,0.,12.0
1979-03-02 03:52:18.970 ,7,0,1.,12.0,0.,12.0,0.,12.0,0.,12.0
1979-03-02 03:52:30.970 ,7,0,0.,12.0,0.,12.0,0.,12.0,0.,12.0
1979-03-02 03:52:42.970 ,7,0,0.,12.0,0.,12.0,0.,12.0,0.,12.0
1979-03-02 03:52:54.970 ,7,0,0.,12.0,0.,12.0,0.,12.0,0.,12.0
1979-03-02 03:53:06.970 ,6,0,0.,12.0,0.,12.0,0.,12.0,0.,12.0
1979-03-02 03:53:18.970 ,6,0,2.,12.0,0.,12.0,0.,12.0,0.,12.0
1979-03-02 03:53:30.970 ,5,0,0.,12.0,0.,12.0,0.,12.0,0.,12.0
1979-03-02 03:53:42.970 ,5,0,0.,12.0,0.,12.0,0.,12.0,0.,12.0
1979-03-02 03:53:54.970 ,4,0,3.,12.0,0.,12.0,0.,12.0,0.,12.0
1979-03-02 03:54:06.970 ,4,0,0.,12.0,0.,12.0,0.,12.0,0.,12.0
1979-03-02 03:54:18.970 ,3,0,0.,12.0,0.,12.0,0.,12.0,0.,12.0
1979-03-02 03:54:30.970 ,3,0,0.,12.0,0.,12.0,0.,12.0,0.,12.0
1979-03-02 03:54:42.970 ,2,0,0.,12.0,0.,12.0,0.,12.0,0.,12.0
1979-03-02 03:54:54.970 ,2,0,0.,12.0,0.,12.0,0.,12.0,0.,12.0
1979-03-02 03:55:06.970 ,1,0,2.,12.0,0.,12.0,0.,12.0,0.,12.0
1979-03-02 03:55:18.970 ,1,0,1.,12.0,0.,12.0,0.,12.0,0.,12.0
1979-03-02 03:55:30.970 ,0,0,1.,12.0,0.,12.0,0.,12.0,0.,12.0
1979-03-02 03:55:42.970 ,0,0,0.,12.0,0.,12.0,0.,12.0,0.,12.0
1979-03-02 03:55:54.970 ,0,0,0.,12.0,0.,12.0,0.,12.0,0.,12.0
1979-03-02 03:56:06.970 ,0,0,0.,12.0,0.,12.0,0.,12.0,0.,12.0
1979-03-02 03:56:18.970 ,1,0,0.,12.0,0.,12.0,0.,12.0,0.,12.0
1979-03-02 03:56:30.970 ,1,0,0.,12.0,0.,12.0,0.,12.0,0.,12.0
1979-03-02 03:56:42.970 ,2,0,0.,12.0,0.,12.0,0.,12.0,0.,12.0
1979-03-02 03:56:54.970 ,2,0,0.,12.0,0.,12.0,0.,12.0,0.,12.0
1979-03-02 03:57:06.970 ,3,0,0.,12.0,0.,12.0,0.,12.0,0.,12.0
1979-03-02 03:57:18.970 ,3,0,2.,12.0,0.,12.0,0.,12.0,0.,12.0
1979-03-02 03:57:30.970 ,4,0,2.,12.0,0.,12.0,0.,12.0,0.,12.0
1979-03-02 03:57:42.970 ,4,0,1.,12.0,0.,12.0,0.,12.0,0.,12.0
1979-03-02 03:57:54.970 ,5,0,1.,12.0,0.,12.0,0.,12.0,0.,12.0
1979-03-02 03:58:06.970 ,5,0,0.,12.0,0.,12.0,0.,12.0,0.,12.0
1979-03-02 03:58:18.970 ,6,0,2.,12.0,0.,12.0,0.,12.0,0.,12.0
1979-03-02 03:58:30.970 ,6,0,2.,12.0,0.,12.0,0.,12.0,0.,12.0
1979-03-02 03:58:42.970 ,7,0,2.,12.0,0.,12.0,0.,12.0,0.,12.0
1979-03-02 03:58:54.970 ,7,0,0.,12.0,0.,12.0,0.,12.0,0.,12.0
1979-03-02 03:59:06.970 ,7,0,0.,12.0,0.,12.0,0.,12.0,0.,12.0
1979-03-02 03:59:18.970 ,7,0,0.,12.0,0.,12.0,0.,12.0,0.,12.0
1979-03-02 03:59:30.970 ,6,0,0.,12.0,0.,12.0,0.,12.0,0.,12.0
1979-03-02 03:59:42.970 ,6,0,1.,12.0,0.,12.0,0.,12.0,0.,12.0
1979-03-02 03:59:54.970 ,5,0,2.,12.0,0.,12.0,0.,12.0,0.,12.0
1979-03-02 04:00:06.970 ,5,0,0.,12.0,0.,12.0,0.,12.0,0.,12.0
1979-03-02 04:00:18.970 ,4,0,0.,12.0,0.,12.0,0.,12.0,0.,12.0
1979-03-02 04:00:30.970 ,4,0,0.,12.0,0.,12.0,0.,12.0,0.,12.0
1979-03-02 04:00:42.970 ,3,0,1.,12.0,0.,12.0,0.,12.0,0.,12.0
1979-03-02 04:00:54.970 ,3,0,0.,12.0,0.,12.0,0.,12.0,0.,12.0
1979-03-02 04:01:06.970 ,2,0,0.,12.0,0.,12.0,0.,12.0,0.,12.0
1979-03-02 04:01:18.970 ,2,0,0.,12.0,0.,12.0,0.,12.0,0.,12.0
1979-03-02 04:01:30.970 ,1,0,0.,12.0,0.,12.0,0.,12.0,0.,12.0
1979-03-02 04:01:42.970 ,1,0,0.,12.0,0.,12.0,0.,12.0,0.,12.0
1979-03-02 04:01:54.970 ,0,0,2.,12.0,0.,12.0,0.,12.0,0.,12.0
1979-03-02 04:02:06.970 ,0,0,0.,12.0,0.,12.0,0.,12.0,0.,12.0
1979-03-02 04:02:18.970 ,0,0,1.,12.0,0.,12.0,0.,12.0,0.,12.0
1979-03-02 04:02:30.970 ,0,0,0.,12.0,0.,12.0,0.,12.0,0.,12.0
1979-03-02 04:02:42.970 ,1,0,0.,12.0,0.,12.0,0.,12.0,0.,12.0
1979-03-02 04:02:54.970 ,1,0,1.,12.0,0.,12.0,0.,12.0,0.,12.0
1979-03-02 04:03:06.970 ,2,0,0.,12.0,0.,12.0,0.,12.0,0.,12.0
1979-03-02 04:03:18.970 ,2,0,1.,12.0,0.,12.0,0.,12.0,0.,12.0
1979-03-02 04:03:30.970 ,3,0,0.,12.0,0.,12.0,0.,12.0,0.,12.0
1979-03-02 04:03:42.970 ,3,0,0.,12.0,0.,12.0,0.,12.0,0.,12.0
1979-03-02 04:03:54.970 ,4,0,0.,12.0,0.,12.0,0.,12.0,0.,12.0
1979-03-02 04:04:06.970 ,4,0,2.,12.0,0.,12.0,0.,12.0,0.,12.0
1979-03-02 04:04:18.970 ,5,0,2.,12.0,0.,12.0,0.,12.0,0.,12.0
1979-03-02 04:04:30.970 ,5,0,1.,12.0,0.,12.0,0.,12.0,0.,12.0
1979-03-02 04:04:42.970 ,6,0,1.,12.0,0.,12.0,0.,12.0,0.,12.0
1979-03-02 04:04:54.970 ,6,0,1.,12.0,0.,12.0,0.,12.0,0.,12.0
1979-03-02 04:05:06.970 ,7,0,2.,12.0,0.,12.0,0.,12.0,0.,12.0
1979-03-02 04:05:18.970 ,7,0,0.,12.0,0.,12.0,0.,12.0,0.,12.0
1979-03-02 04:05:30.970 ,7,0,0.,12.0,0.,12.0,0.,12.0,0.,12.0
1979-03-02 04:05:42.970 ,7,0,0.,12.0,0.,12.0,0.,12.0,0.,12.0
1979-03-02 04:05:54.970 ,6,0,0.,12.0,0.,12.0,0.,12.0,0.,12.0
1979-03-02 04:06:06.970 ,6,0,3.,12.0,0.,12.0,0.,12.0,0.,12.0
1979-03-02 04:06:18.970 ,5,0,1.,12.0,0.,12.0,0.,12.0,0.,12.0
1979-03-02 04:06:30.970 ,5,0,0.,12.0,0.,12.0,0.,12.0,0.,12.0
1979-03-02 04:06:42.970 ,4,0,0.,12.0,0.,12.0,0.,12.0,0.,12.0
1979-03-02 04:06:54.970 ,4,0,1.,12.0,0.,12.0,0.,12.0,0.,12.0
1979-03-02 04:07:06.970 ,3,0,1.,12.0,0.,12.0,0.,12.0,0.,12.0
1979-03-02 04:07:18.970 ,3,0,0.,12.0,0.,12.0,0.,12.0,0.,12.0
1979-03-02 04:07:30.970 ,2,0,2.,12.0,0.,12.0,0.,12.0,0.,12.0
1979-03-02 04:07:42.970 ,2,0,0.,12.0,0.,12.0,0.,12.0,0.,12.0
1979-03-02 04:07:54.970 ,1,0,1.,12.0,0.,12.0,0.,12.0,0.,12.0
1979-03-02 04:08:06.970 ,1,0,0.,12.0,0.,12.0,0.,12.0,0.,12.0
1979-03-02 04:08:18.970 ,0,0,1.,12.0,0.,12.0,0.,12.0,0.,12.0
1979-03-02 04:08:30.970 ,0,0,2.,12.0,0.,12.0,0.,12.0,0.,12.0
1979-03-02 04:08:42.970 ,0,0,0.,12.0,0.,12.0,0.,12.0,0.,12.0
1979-03-02 04:08:54.970 ,0,0,0.,12.0,0.,12.0,0.,12.0,0.,12.0
1979-03-02 04:09:06.970 ,1,0,0.,12.0,0.,12.0,0.,12.0,0.,12.0
1979-03-02 04:09:18.970 ,1,0,1.,12.0,0.,12.0,0.,12.0,0.,12.0
1979-03-02 04:09:30.970 ,2,0,0.,12.0,0.,12.0,0.,12.0,0.,12.0
1979-03-02 04:09:42.970 ,2,0,1.,12.0,0.,12.0,0.,12.0,0.,12.0
1979-03-02 04:09:54.970 ,3,0,0.,12.0,0.,12.0,0.,12.0,0.,12.0
1979-03-02 04:10:06.970 ,3,0,2.,12.0,0.,12.0,0.,12.0,0.,12.0
1979-03-02 04:10:18.970 ,4,0,1.,12.0,0.,12.0,0.,12.0,0.,12.0
1979-03-02 04:10:30.970 ,4,0,0.,12.0,0.,12.0,0.,12.0,0.,12.0
1979-03-02 04:10:42.970 ,5,0,3.,12.0,0.,12.0,0.,12.0,0.,12.0
1979-03-02 04:10:54.970 ,5,0,2.,12.0,0.,12.0,0.,12.0,0.,12.0
1979-03-02 04:11:06.970 ,6,0,2.,12.0,0.,12.0,0.,12.0,0.,12.0
1979-03-02 04:11:18.970 ,6,0,1.,12.0,0.,12.0,0.,12.0,0.,12.0
1979-03-02 04:11:30.970 ,7,0,0.,12.0,0.,12.0,0.,12.0,0.,12.0
1979-03-02 04:11:42.970 ,7,0,0.,12.0,0.,12.0,0.,12.0,0.,12.0
1979-03-02 04:11:54.970 ,7,0,0.,12.0,0.,12.0,0.,12.0,0.,12.0
1979-03-02 04:12:06.970 ,7,0,0.,12.0,0.,12.0,0.,12.0,0.,12.0
1979-03-02 04:12:18.970 ,6,0,0.,12.0,0.,12.0,0.,12.0,0.,12.0
1979-03-02 04:12:30.970 ,6,0,4.,12.0,0.,12.0,0.,12.0,0.,12.0
1979-03-02 04:12:42.970 ,5,0,2.,12.0,0.,12.0,0.,12.0,0.,12.0
1979-03-02 04:12:54.970 ,5,0,0.,12.0,0.,12.0,0.,12.0,0.,12.0
1979-03-02 04:13:06.970 ,4,0,1.,12.0,0.,12.0,0.,12.0,0.,12.0
1979-03-02 04:13:18.970 ,4,0,1.,12.0,0.,12.0,0.,12.0,0.,12.0
1979-03-02 04:13:30.970 ,3,0,0.,12.0,0.,12.0,0.,12.0,0.,12.0
1979-03-02 04:13:42.970 ,3,0,1.,12.0,0.,12.0,0.,12.0,0.,12.0
1979-03-02 04:13:54.970 ,2,0,1.,12.0,0.,12.0,0.,12.0,0.,12.0
1979-03-02 04:14:06.970 ,2,0,0.,12.0,0.,12.0,0.,12.0,0.,12.0
1979-03-02 04:14:18.970 ,1,0,0.,12.0,0.,12.0,0.,12.0,0.,12.0
1979-03-02 04:14:30.970 ,1,0,1.,12.0,0.,12.0,0.,12.0,0.,12.0
1979-03-02 04:14:42.970 ,0,0,1.,12.0,0.,12.0,0.,12.0,0.,12.0
1979-03-02 04:14:54.970 ,0,0,1.,12.0,0.,12.0,0.,12.0,0.,12.0
1979-03-02 04:15:06.970 ,0,0,0.,12.0,0.,12.0,0.,12.0,0.,12.0
1979-03-02 04:15:18.970 ,0,0,2.,12.0,0.,12.0,0.,12.0,0.,12.0
1979-03-02 04:15:30.970 ,1,0,0.,12.0,0.,12.0,0.,12.0,0.,12.0
1979-03-02 04:15:42.970 ,1,0,0.,12.0,0.,12.0,0.,12.0,0.,12.0
1979-03-02 04:15:54.970 ,2,0,0.,12.0,0.,12.0,0.,12.0,0.,12.0
1979-03-02 04:16:06.970 ,2,0,0.,12.0,0.,12.0,0.,12.0,0.,12.0
1979-03-02 04:16:18.970 ,3,0,0.,12.0,0.,12.0,0.,12.0,0.,12.0
1979-03-02 04:16:30.970 ,3,0,0.,12.0,0.,12.0,0.,12.0,0.,12.0
1979-03-02 04:16:42.970 ,4,0,1.,12.0,0.,12.0,0.,12.0,0.,12.0
1979-03-02 04:16:54.970 ,4,0,0.,12.0,0.,12.0,0.,12.0,0.,12.0
1979-03-02 04:17:06.970 ,5,0,0.,12.0,0.,12.0,0.,12.0,0.,12.0
1979-03-02 04:17:18.970 ,5,0,2.,12.0,0.,12.0,0.,12.0,0.,12.0